Wind_Speed
13 13 13 13 13 14 14 14 14 13 13 13 13 13 12 10 9 7 6 6 6 6 6 6 6 6 6 6 6 6 7 7 7 8 8 10 10 10 10 10 10 9 10
13 13 12 13 13 13 13 14 14 14 13 13 13 13 13 11 10 8 7 7 7 6 7 7 8 7 7 6 6 6 7 8 8 8 9 9 10 11 12 12 12 11 12
12 12 12 12 12 13 13 13 14 13 14 14 14 14 12 11 10 9 8 8 7 7 8 8 8 7 7 6 6 6 7 8 9 9 9 10 11 13 12 13 13 13 13
12 12 12 12 12 12 12 13 13 13 13 14 14 13 12 12 11 10 9 9 8 8 8 9 8 8 7 7 7 7 7 8 9 10 10 10 11 13 13 13 14 14 14
11 12 12 12 12 12 12 13 13 13 13 14 13 12 12 12 11 10 10 9 9 9 8 9 10 9 8 8 8 8 8 8 9 10 10 11 11 12 13 14 14 14 15
12 11 11 11 12 12 12 13 13 13 13 13 13 12 12 11 11 10 10 10 10 10 9 9 9 9 9 9 9 9 9 9 9 10 11 11 11 12 13 14 14 15 15
11 11 11 10 11 12 13 13 13 13 13 12 13 12 11 10 11 11 10 10 10 10 10 10 10 10 10 10 10 10 10 9 10 11 11 12 12 13 13 13 14 15 16
10 10 10 10 11 11 12 13 13 13 13 13 12 12 11 11 11 11 10 10 10 11 11 11 11 11 11 12 12 11 11 11 11 12 12 12 13 14 13 13 14 15 16
10 10 10 10 11 11 12 13 13 12 12 12 13 13 12 11 12 12 11 11 11 11 12 12 12 12 13 13 13 12 12 12 12 12 12 12 13 13 14 14 14 15 16
10 11 10 10 11 11 12 13 12 12 12 12 12 13 12 12 12 11 11 11 12 12 13 13 13 13 13 14 14 14 14 13 13 13 13 13 13 14 14 15 16 17 17
9 11 11 11 11 12 12 12 12 12 12 11 12 12 12 13 12 12 12 12 13 13 14 14 14 15 14 14 15 15 14 13 13 14 14 14 14 14 14 15 16 16 17
11 12 12 11 11 11 11 12 12 12 12 12 13 13 12 13 13 12 13 13 14 14 14 15 15 15 15 15 15 15 14 14 14 14 14 14 14 14 15 16 16 17 17
12 13 13 12 12 12 12 12 13 13 13 13 13 13 13 13 13 14 14 14 15 15 15 15 16 16 16 16 15 15 15 15 15 15 15 15 15 15 16 16 17 17 18
14 14 14 14 13 12 12 13 13 14 14 14 14 14 14 14 15 15 15 16 16 16 16 16 16 17 17 17 16 16 15 16 15 15 16 16 16 16 17 18 18 18 18
15 15 15 14 13 13 13 13 14 14 14 15 15 15 15 15 16 16 17 17 17 17 17 17 17 17 17 17 17 17 17 17 17 17 17 17 17 17 18 18 19 19 19
17 16 15 15 15 15 14 15 15 15 16 16 16 16 16 17 17 18 18 18 18 18 18 18 18 18 18 18 18 18 18 18 18 18 18 18 18 19 19 20 20 20 20
18 17 16 16 16 16 16 16 17 17 17 17 17 17 17 18 18 19 19 19 19 19 19 19 18 18 18 18 18 18 18 18 18 19 19 19 19 20 20 20 20 21 21
19 18 17 17 18 18 18 18 18 18 18 19 19 19 19 19 19 20 20 19 19 19 19 19 18 18 18 18 18 19 19 19 19 19 20 20 20 20 21 21 22 22 23
20 19 18 18 19 19 19 19 19 20 20 20 21 20 20 20 21 21 20 20 20 19 19 19 19 19 19 18 19 19 19 20 21 21 21 21 21 21 22 22 23 23 24
22 21 20 20 20 20 20 20 20 21 21 22 22 22 21 22 21 21 20 20 20 20 20 19 19 20 20 20 20 20 21 21 21 22 22 22 22 23 23 24 24 24 24
24 23 21 21 21 21 21 22 22 22 23 23 22 22 22 23 22 22 22 21 21 22 21 21 21 21 21 22 21 21 22 22 22 22 23 23 23 24 24 25 25 25 25
25 24 23 23 23 24 24 24 23 23 24 24 23 23 23 23 23 23 23 22 22 22 23 23 23 23 23 22 22 23 23 24 24 24 24 24 24 25 25 25 25 25 25
27 26 25 25 25 25 25 25 25 25 25 25 25 24 24 24 24 24 24 24 23 24 24 24 24 24 23 23 24 25 25 25 25 25 25 25 25 26 25 25 25 26 26
29 28 28 27 27 27 26 26 26 26 26 26 26 25 24 24 25 25 25 25 25 25 25 25 25 24 25 25 26 26 26 26 26 26 26 26 26 25 25 26 26 26 26
30 29 29 29 28 28 27 27 27 27 27 27 26 26 25 26 26 27 27 27 26 26 26 26 26 27 27 27 27 28 28 28 27 27 27 27 27 26 26 26 26 26 26
30 30 30 29 29 29 29 28 28 28 28 27 27 27 27 27 28 27 27 27 28 28 28 28 28 28 29 29 29 29 29 28 28 28 28 28 28 27 26 26 26 25 25
Wind_Direction
11 14 17 18 19 19 19 20 18 19 17 13 12 12 8 7 7 5 5 357 352 347 346 342 332 326 319 313 299 290 286 280 272 268 267 264 267 270 268 268 271 277 279
11 12 12 12 14 16 17 16 16 14 12 9 9 10 11 12 12 7 1 353 351 350 349 346 340 334 324 314 310 304 289 284 281 275 272 273 272 273 272 268 267 272 277
8 8 6 8 10 12 12 10 8 7 7 4 5 11 16 14 11 8 3 357 352 347 345 343 339 335 334 329 322 316 303 293 287 283 279 280 280 275 275 274 270 268 275
2 3 2 5 8 8 8 5 3 4 4 3 4 10 12 9 6 4 1 355 352 347 344 341 338 333 328 327 325 320 311 300 295 293 288 285 283 281 279 276 274 274 276
356 359 359 3 4 3 1 0 359 0 1 359 1 4 5 3 1 359 357 357 359 353 345 340 341 336 328 327 325 321 315 309 301 295 291 290 287 285 281 279 278 278 279
343 351 354 357 358 358 359 359 357 357 358 357 358 359 359 360 360 0 357 356 360 358 351 348 344 339 336 335 332 328 320 313 306 300 295 291 290 291 289 285 284 281 283
332 341 347 349 353 354 356 356 356 357 357 355 356 357 356 359 1 1 360 358 359 359 357 354 351 347 343 338 332 326 320 314 309 303 300 297 294 294 293 289 290 289 288
321 330 338 342 346 348 350 351 351 351 352 355 356 355 353 356 357 357 356 355 355 355 354 351 347 344 339 334 330 325 321 318 314 308 302 296 294 295 296 293 292 291 290
311 318 326 334 339 342 345 346 346 348 351 355 354 352 351 350 351 352 352 351 351 349 347 344 341 338 335 333 330 326 321 317 314 311 306 302 297 294 294 293 292 291 290
302 309 317 323 329 335 340 343 345 345 348 351 352 351 351 350 351 350 347 346 346 343 341 340 339 336 334 333 331 329 324 321 318 314 309 303 300 299 298 296 294 293 292
296 305 309 315 321 327 333 338 340 340 342 344 346 347 348 346 343 345 343 342 341 340 338 336 335 336 334 333 333 331 326 323 320 317 312 306 303 302 302 302 300 298 297
287 295 302 308 315 321 327 332 336 336 338 339 340 342 346 348 347 344 342 340 337 335 333 332 331 331 332 331 330 331 330 327 324 321 318 313 309 305 305 304 304 302 300
278 287 296 303 309 314 319 324 329 331 332 332 333 335 337 339 341 341 341 340 337 333 330 329 328 328 328 326 328 329 327 325 324 323 323 320 316 311 308 306 305 305 306
276 282 291 298 303 308 311 317 322 325 325 326 328 329 330 331 333 332 333 334 333 331 328 328 326 325 325 325 325 325 322 321 323 323 322 319 314 310 308 307 306 306 306
273 277 284 290 294 300 304 309 315 319 320 321 323 325 326 326 327 326 326 329 331 331 328 326 326 323 323 323 323 323 323 320 319 320 320 318 314 312 310 308 307 307 308
268 274 277 283 287 292 297 302 307 312 314 316 318 320 321 322 322 322 324 325 327 329 329 326 325 324 322 321 320 321 322 320 318 317 317 315 314 314 312 310 310 312 311
266 270 271 276 281 286 291 297 301 306 309 311 313 315 316 317 319 321 322 323 324 325 325 323 322 322 321 320 320 320 321 320 318 316 315 315 315 315 314 315 314 312 311
262 266 268 272 277 281 286 292 296 301 305 307 309 311 312 313 315 318 319 320 320 321 321 321 321 321 322 321 317 317 319 320 320 319 318 315 314 314 313 314 312 312 311
261 265 268 270 274 279 283 287 290 297 302 305 306 306 308 309 312 314 315 317 318 321 321 320 321 321 321 321 318 317 316 317 318 318 318 316 314 315 314 313 312 311 311
258 262 267 270 272 278 280 284 289 294 298 301 304 304 304 307 309 311 313 315 317 319 320 319 319 319 318 317 317 317 316 316 316 316 316 315 314 313 312 312 311 311 311
257 261 266 271 272 276 280 283 286 291 295 298 300 302 303 304 306 308 309 310 312 313 314 315 315 316 317 316 315 315 316 315 315 315 314 314 313 311 311 311 310 309 309
256 260 264 269 273 276 279 282 284 288 291 294 296 298 300 301 302 304 306 307 310 311 312 313 314 313 314 314 314 314 314 314 313 313 313 312 312 311 310 310 309 309 309
255 258 263 268 272 276 278 281 284 286 289 292 294 296 296 297 299 301 303 305 307 308 311 310 311 312 312 313 314 314 313 313 313 312 312 312 311 311 311 309 308 308 308
254 257 261 266 271 274 277 279 283 286 289 290 292 294 294 296 298 300 301 302 304 306 309 308 309 310 310 310 312 312 312 313 313 311 310 310 310 309 309 308 307 307 308
255 258 261 265 269 272 274 277 280 284 287 289 290 292 293 295 296 297 300 302 303 306 308 309 308 308 308 308 308 309 310 310 310 309 310 310 310 310 310 310 309 309 308
256 259 261 264 267 271 273 275 278 282 285 287 288 290 291 293 295 298 299 301 303 304 305 305 307 308 307 307 308 308 309 309 308 308 310 311 310 310 310 310 311 310 310
Height
5923 5922 5920 5919 5917 5916 5914 5913 5912 5910 5908 5907 5905 5903 5902 5901 5899 5898 5897 5897 5896 5896 5895 5894 5894 5893 5893 5893 5892 5892 5892 5892 5892 5892 5892 5893 5893 5893 5893 5894 5894 5894 5894
5924 5923 5921 5920 5918 5916 5915 5914 5913 5911 5909 5907 5905 5904 5902 5901 5900 5898 5897 5897 5896 5895 5895 5894 5893 5893 5892 5892 5891 5890 5890 5890 5890 5890 5890 5891 5891 5891 5891 5891 5891 5891 5892
5925 5924 5922 5921 5919 5917 5916 5915 5914 5912 5910 5908 5905 5904 5903 5901 5900 5899 5898 5897 5896 5895 5894 5894 5893 5892 5891 5891 5890 5889 5889 5889 5888 5888 5888 5888 5889 5888 5888 5888 5887 5888 5889
5926 5924 5923 5921 5920 5918 5917 5916 5914 5913 5911 5909 5907 5905 5903 5902 5900 5899 5898 5897 5896 5895 5894 5893 5892 5891 5890 5890 5889 5888 5887 5887 5886 5886 5885 5886 5886 5885 5885 5885 5885 5885 5885
5926 5925 5923 5922 5920 5919 5918 5916 5915 5913 5911 5910 5908 5906 5904 5902 5901 5899 5898 5897 5896 5895 5894 5893 5892 5891 5890 5889 5887 5886 5885 5885 5884 5884 5883 5883 5882 5882 5882 5882 5882 5882 5881
5926 5925 5923 5922 5921 5919 5918 5917 5915 5913 5912 5910 5908 5906 5905 5903 5901 5899 5898 5897 5896 5895 5894 5893 5891 5890 5889 5887 5886 5885 5884 5883 5882 5881 5880 5880 5879 5879 5879 5879 5878 5878 5877
5926 5925 5924 5922 5921 5920 5918 5916 5915 5913 5912 5910 5908 5906 5905 5903 5901 5900 5898 5897 5896 5895 5894 5892 5891 5889 5888 5886 5885 5883 5882 5881 5880 5879 5878 5877 5877 5876 5876 5875 5875 5874 5873
5926 5925 5924 5923 5921 5920 5918 5916 5915 5913 5911 5910 5908 5906 5905 5903 5902 5900 5899 5897 5896 5895 5893 5892 5890 5888 5887 5885 5883 5881 5880 5879 5878 5877 5876 5875 5874 5873 5873 5872 5872 5870 5870
5925 5924 5923 5922 5921 5919 5918 5916 5914 5913 5911 5909 5908 5906 5904 5903 5901 5900 5899 5897 5896 5894 5893 5891 5889 5887 5885 5883 5881 5879 5878 5877 5875 5874 5873 5872 5871 5870 5869 5869 5868 5867 5866
5923 5923 5922 5921 5920 5919 5917 5916 5914 5912 5911 5909 5908 5906 5904 5902 5901 5899 5898 5897 5895 5893 5892 5890 5888 5886 5884 5882 5879 5877 5875 5874 5873 5871 5870 5869 5868 5867 5866 5865 5864 5862 5862
5922 5921 5921 5920 5919 5918 5916 5915 5913 5912 5910 5909 5907 5906 5904 5902 5900 5899 5897 5896 5894 5892 5890 5889 5887 5884 5882 5880 5878 5875 5873 5871 5870 5869 5867 5866 5864 5864 5863 5861 5860 5858 5857
5921 5920 5919 5919 5918 5917 5916 5914 5913 5911 5910 5908 5907 5905 5903 5901 5900 5898 5896 5894 5893 5891 5889 5887 5885 5883 5880 5878 5876 5873 5871 5869 5867 5865 5864 5862 5861 5860 5859 5858 5856 5855 5853
5919 5918 5918 5917 5916 5915 5914 5913 5912 5910 5909 5907 5906 5904 5902 5901 5899 5897 5895 5893 5891 5889 5887 5884 5883 5881 5878 5876 5873 5871 5869 5867 5865 5863 5861 5860 5858 5857 5856 5854 5852 5851 5849
5916 5916 5915 5915 5914 5914 5913 5912 5911 5909 5908 5906 5905 5903 5901 5899 5898 5896 5893 5891 5889 5887 5884 5882 5880 5878 5875 5873 5871 5869 5867 5865 5863 5861 5859 5857 5855 5854 5852 5850 5848 5847 5845
5913 5913 5913 5912 5912 5912 5911 5910 5909 5908 5906 5905 5903 5901 5899 5898 5896 5894 5892 5889 5887 5884 5882 5880 5877 5875 5873 5870 5868 5866 5864 5862 5860 5859 5857 5854 5852 5851 5849 5847 5845 5842 5840
5909 5910 5910 5910 5910 5909 5909 5908 5907 5906 5905 5903 5901 5900 5898 5896 5894 5892 5889 5887 5884 5882 5879 5877 5875 5872 5870 5867 5865 5863 5861 5859 5857 5856 5854 5851 5849 5847 5845 5842 5840 5838 5836
5905 5906 5906 5906 5906 5906 5906 5906 5905 5904 5902 5901 5899 5897 5895 5893 5891 5889 5887 5884 5881 5879 5877 5874 5872 5869 5867 5865 5863 5860 5858 5856 5854 5852 5850 5848 5846 5843 5841 5838 5836 5834 5831
5901 5901 5902 5903 5903 5903 5903 5902 5902 5901 5899 5898 5896 5894 5893 5891 5888 5886 5884 5881 5879 5876 5874 5871 5869 5867 5864 5862 5860 5857 5855 5853 5851 5848 5846 5844 5841 5839 5836 5834 5831 5828 5826
5897 5898 5898 5898 5899 5899 5899 5899 5898 5897 5896 5894 5893 5891 5889 5887 5885 5883 5880 5878 5875 5873 5871 5868 5866 5864 5861 5859 5856 5854 5852 5849 5847 5844 5842 5839 5837 5834 5831 5829 5826 5823 5820
5891 5892 5893 5894 5894 5894 5894 5894 5894 5893 5892 5891 5889 5887 5885 5883 5881 5879 5877 5874 5872 5870 5867 5865 5863 5860 5858 5855 5853 5851 5848 5846 5843 5840 5837 5835 5832 5829 5826 5823 5821 5818 5815
5886 5887 5888 5889 5889 5889 5889 5889 5889 5889 5888 5886 5885 5883 5881 5880 5878 5876 5873 5871 5869 5866 5864 5862 5859 5857 5854 5852 5849 5846 5844 5841 5838 5836 5833 5830 5827 5824 5821 5818 5815 5812 5809
5881 5882 5883 5884 5884 5884 5884 5884 5884 5883 5882 5881 5879 5878 5877 5875 5873 5872 5869 5867 5864 5862 5860 5858 5855 5853 5850 5848 5845 5842 5839 5836 5833 5830 5827 5824 5821 5818 5815 5812 5809 5806 5803
5875 5876 5877 5878 5879 5879 5879 5878 5878 5878 5877 5875 5874 5873 5872 5870 5868 5867 5865 5862 5860 5858 5856 5853 5851 5848 5846 5843 5840 5837 5834 5831 5828 5824 5822 5818 5815 5812 5809 5806 5803 5800 5797
5869 5870 5871 5872 5872 5873 5873 5872 5872 5871 5871 5870 5869 5867 5866 5865 5863 5861 5860 5857 5855 5853 5851 5848 5846 5843 5841 5838 5835 5832 5829 5825 5822 5819 5816 5813 5809 5806 5803 5800 5796 5793 5790
5861 5863 5864 5865 5866 5866 5866 5866 5866 5865 5865 5864 5863 5861 5860 5859 5857 5855 5853 5851 5849 5847 5845 5842 5840 5837 5835 5832 5829 5826 5823 5819 5816 5813 5810 5807 5803 5800 5797 5794 5790 5787 5784
5854 5855 5857 5858 5858 5859 5859 5859 5859 5859 5858 5857 5856 5855 5854 5853 5851 5849 5847 5845 5843 5840 5838 5836 5833 5830 5828 5825 5822 5819 5816 5813 5810 5807 5804 5800 5797 5794 5791 5787 5784 5781 5778